Location: Daerah Kuala Lumpur
(3.1167°N, 101.6833°E)
Time: 11:21:23
(UTC+00:00)

ARIANE 6 FM1 Upper Stage - Visible Passes

Search period start: 17 February 2026 00:00
Search period end: 27 February 2026 00:00
Orbit: 522 x 608 km, 62.0° (Epoch: 17 February)

Date Brightness Start Highest point End Pass type
(mag) Time Alt. Az. Time Alt. Az. Time Alt. Az.
21 Feb 4.7 13:04:17 10° NNW 13:05:21 18° NNW 13:05:21 18° NNW visible
22 Feb 3.0 13:04:13 10° NW 13:08:11 59° WSW 13:08:13 59° WSW visible
23 Feb 4.3 13:04:25 10° NW 13:08:04 33° WSW 13:11:49 10° S visible
24 Feb 5.3 13:05:02 10° WNW 13:07:58 19° WSW 13:10:57 10° SSW visible
25 Feb 6.0 13:06:40 10° W 13:07:52 11° WSW 13:09:03 10° SW visible
